Retour au catalogue

MEASAT 3

ActifCommunicationsGEO
NORAD 29648·PAYLOAD·🇲🇾 Malaysia

Lancé Dec 11, 2006 depuis Baikonur Cosmodrome

Loading…

TLE

FraisSource: Space-Track

Époque: Sep 14, 2026, 15:11 UTC

1 29648U 06056A   26257.63325101 -.00000099  00000-0  00000-0 0  9998
2 29648   4.9530  74.9777 0003680 173.5613 147.3755  0.99754268 51273

Suivez MEASAT 3 en temps réel avec AllMySat

Download on the App Store